Regional Weather Roundup
Issued by NWS

Home | Current Version | Previous Version | Graphics & Text | Print | Product List | Glossary On
Versions: 1 2 3 4 5 6 7 8 9 10 11 12 13 14 15 16 17 18 19 20 21 22 23 24 25 26 27 28 29 30 31 32 33 34 35 36 37 38 39 40 41 42 43 44 45 46 47 48 49 50
458
ASUS43 KLSX 270510
RWRMO

WEATHER SUMMARY FOR MISSOURI
NATIONAL WEATHER SERVICE SPRINGFIELD MO
1200 AM CDT FRI APR 27 2018

NOTE: "FAIR" INDICATES FEW OR NO CLOUDS BELOW 12,000 FEET WITH NO
       SIGNIFICANT WEATHER AND/OR OBSTRUCTIONS TO VISIBILITY.
       CURRENT SKY AND/OR WEATHER CONDITIONS ARE NOT AVAILABLE FOR
       CHILLICOTHE AND FARMINGTON.

MOZ001>031-035>038-043-044-053-054-270600-
...NORTHERN AND WESTERN MISSOURI...

CITY           SKY/WX    TMP DP  RH WIND       PRES   REMARKS
KANSAS CTY INT PTCLDY    55  35  47 N13       30.01R
KANSAS C DTWN  CLEAR     60  41  49 N13G22    30.00R
LEE`S SUMMIT   CLEAR     59  43  55 N18G28    29.99R
ST JOSEPH      CLEAR     53  33  46 N12       30.04R
CHILLICOTHE      N/A     57  35  43 N8G25     29.99R
KIRKSVILLE     CLEAR     56  41  57 N13       29.95R

$$
MOZ066>068-077>081-088>096-101>105-270600-
...SOUTHWEST MISSOURI...

CITY           SKY/WX    TMP DP  RH WIND       PRES   REMARKS
SPRINGFIELD    CLEAR     51  45  79 W5        29.99S
JOPLIN         CLEAR     51  47  86 SW7       30.02S
BRANSON        MOCLDY    54  48  82 CALM      30.02S

$$
MOZ032>034-039>042-045>050-055>058-069>072-270600-
...CENTRAL MISSOURI...

CITY           SKY/WX    TMP DP  RH WIND       PRES   REMARKS
COLUMBIA       CLEAR     56  42  59 W7        29.93F
JEFFERSON CITY CLEAR     51  43  74 W3        29.93F
ROLLA          CLEAR     53  41  63 W8        29.95F
SEDALIA        CLEAR     55  47  74 SW7       29.96S
WHITEMAN AFB   PTCLDY    54  45  72 W6        29.92S
WARRENSBURG    PTCLDY    54  43  66 W5        29.96S
OSAGE BEACH    CLEAR     55  46  71 W3        29.97S

$$
MOZ051-052-059>065-270600-
...EAST CENTRAL MISSOURI...

CITY           SKY/WX    TMP DP  RH WIND       PRES   REMARKS
ST LOUIS INTL  CLEAR     56  40  55 W6        29.90S
SPIRIT OF STL  CLEAR     49  42  77 W7        29.90S
ST CHARLES     CLEAR     58  38  47 W9        29.88F

$$
MOZ072>076-082>087-097>100-106>115-270600-
...SOUTH CENTRAL AND SOUTHEAST MISSOURI...

CITY           SKY/WX    TMP DP  RH WIND       PRES   REMARKS
CAPE GIRARDEAU MOCLDY    51  47  86 W5        29.91S
FARMINGTON     MOCLDY    57  46  66 W5        29.93S
POPLAR BLUFF   FAIR      51  49  92 CALM      29.93S
WEST PLAINS    PTCLDY    53  46  77 W6        29.97F

$$




USA.gov is the U.S. government's official web portal to all federal, state and local government web resources and services.